Home   Weather   Cairo   Past weeks

Flag for Egypt Past Weather in Cairo, Egypt — Yesterday and Last 2 Weeks

Now
90 °F

Sunny.


Feels Like: 90 °F
Forecast: 72 / 95 °F
Wind: 22 mph from North

Location: Cairo Airport

Current Time: Oct 1, 2016 at 2:05:00 PM

Latest Report: Oct 1, 2016 at 1:30 PM


Visibility: 10 mi

Pressure: 29.86 "Hg

Humidity: 38%

Dew Point: 61 °F

Location of CairoLocation

Past Weather in Cairo — Graph

°F

Cairo Temperature Yesterday

Maximum temperature yesterday: 90 °F (at 1:30 PM)
Minimum temperature yesterday: 72 °F (at 4:00 AM)
Average temperature yesterday: 79 °F

High & Low Weather Summary for the Past Weeks

 TemperatureHumidityPressure
High104 °F (Sep 21, 12:30 PM)94% (Sep 18, 7:00 AM)30.12 "Hg (Sep 18, 7:00 AM)
Low72 °F (Sep 25, 6:00 AM)12% (Sep 21, 1:30 PM)29.80 "Hg (Sep 20, 2:00 PM)
Average82 °F56%29.95 "Hg
* Reported Sep 16 1:00 PM — Oct 1 1:00 PM, Cairo, Weather by CustomWeather, © 2016

Note: Actual official high and low records may vary slightly from our data, if they occured in-between our weather recording intervals... More about our weather records

Advertising

Cairo Weather History for the Previous 24 Hours

Scroll right to see more
 ConditionsComfort  
Time TempWeatherWind HumidityBarometerVisibility
1:00 PM
Sat, Oct 1
90 °FSunny.20 mph36%29.86 "Hg10 mi
12:00 PM88 °FSunny.20 mph43%29.89 "Hg10 mi
11:30 AM86 °FSunny.17 mph46%29.92 "Hg10 mi
11:00 AM84 °FSunny.20 mph51%29.92 "Hg10 mi
10:30 AM84 °FScattered clouds.20 mph51%29.92 "HgN/A
10:00 AM82 °FScattered clouds.21 mph58%29.92 "HgN/A
9:30 AM81 °FScattered clouds.24 mph62%29.92 "HgN/A
9:00 AM79 °FScattered clouds.17 mph70%29.92 "HgN/A
8:30 AM79 °FScattered clouds.13 mph70%29.92 "Hg4 mi
8:00 AM75 °FScattered clouds.10 mph78%29.92 "Hg4 mi
7:30 AM73 °FFog.7 mph83%29.92 "Hg2 mi
7:00 AM72 °FFog.8 mph88%29.92 "Hg2 mi
6:30 AM72 °FFog.6 mph83%29.92 "Hg1 mi
6:00 AM72 °FFog.7 mph83%29.92 "Hg1 mi
5:30 AM72 °FFog.7 mph83%29.92 "Hg1 mi
5:00 AM72 °FFog.7 mph83%29.92 "Hg2 mi
4:30 AM72 °FFog.6 mph83%29.92 "Hg2 mi
4:00 AM72 °FHaze.7 mph83%29.92 "Hg2 mi
3:30 AM72 °FHaze.6 mph83%29.92 "Hg2 mi
3:00 AM73 °FHaze.6 mph78%29.92 "Hg2 mi
2:30 AM73 °FHaze.6 mph78%29.92 "Hg2 mi
2:00 AM73 °FHaze.8 mph78%29.95 "Hg2 mi
1:02 AM75 °FHaze.8 mph74%29.95 "Hg2 mi
12:30 AM75 °FHaze.9 mph74%29.95 "Hg2 mi
12:00 AM75 °FHaze.9 mph74%29.95 "Hg2 mi
11:30 PM
Fri, Sep 30
75 °FClear.9 mph74%29.95 "Hg4 mi
11:00 PM77 °FClear.9 mph69%29.98 "Hg10 mi
10:30 PM77 °FClear.7 mph65%29.98 "Hg10 mi
10:00 PM77 °FClear.14 mph65%29.98 "Hg10 mi
9:30 PM77 °FClear.14 mph65%29.98 "Hg10 mi
9:00 PM79 °FClear.14 mph58%29.98 "Hg10 mi
8:30 PM79 °FClear.14 mph58%29.98 "Hg10 mi
8:00 PM81 °FClear.14 mph54%29.95 "Hg10 mi
7:30 PM81 °FClear.14 mph54%29.95 "Hg10 mi
7:00 PM82 °FClear.14 mph45%29.95 "Hg10 mi
6:30 PM82 °FClear.20 mph45%29.95 "Hg10 mi
6:00 PM84 °FClear.20 mph43%29.92 "Hg4 mi
5:30 PM86 °FClear.18 mph40%29.92 "Hg4 mi
5:00 PM88 °FClear.18 mph35%29.92 "Hg4 mi
4:30 PM88 °FClear.17 mph35%29.92 "Hg4 mi
4:00 PM88 °FClear.17 mph35%29.92 "Hg4 mi
3:30 PM90 °FSunny.15 mph36%29.92 "Hg10 mi
3:00 PM90 °FSunny.15 mph36%29.92 "Hg10 mi
2:30 PM90 °FSunny.13 mph36%29.92 "Hg10 mi
2:00 PM88 °FSunny.13 mph38%29.95 "Hg10 mi
Weather by CustomWeather, © 2016

See weather overviewHow to use our weather pages